Location: Walnut Hills Mobile Home Park
(34.0445°N, 117.8184°W)
Time: 02:35:50
(UTC+00:00)

Meteor 1-10 Rocket - Pass Details

Date: 17 December 2025
Orbit: 835 x 908 km, 81.3° (Epoch: 15 January)

Event Time Altitude Azimuth Distance (km) Brightness Sun altitude
Rises 13:58:43 0° 348° (NNW) 3,539 7.1 -10.7°
Reaches altitude 10° 14:01:12 10° 346° (NNW) 2,596 6.4 -10.2°
Maximum altitude 14:07:05 68° 265° (W) 974 4.3 -9.1°
Drops below altitude 10° 14:12:54 10° 183° (S) 2,567 7.0 -7.9°
Sets 14:15:21 0° 181° (S) 3,497 7.7 -7.5°
